Weather Roundup
Issued by NWS

Home | Current Version | Previous Version | Graphics & Text | Print | Product List | Glossary Off
Versions: 1 2 3 4 5 6 7 8 9 10 11 12 13 14 15 16 17 18 19 20 21 22 23 24 25 26 27 28 29 30 31 32 33 34 35 36 37 38 39 40 41 42 43 44 45 46 47 48 49 50

000
NZUS93 KARX 241559
HRRWXR

CURRENT HOURLY OBSERVATIONS ACROSS
MUCH OF THE UPPER MISSISSIPPI VALLEY
NATIONAL WEATHER SERVICE LA CROSSE WI
1100 AM CDT THU JUL 24 2014


...SOUTHEAST MINNESOTA...


CITY           SKY/WX    TMP DP  RH WIND       PRES   REMARKS
ROCHESTER      MOSUNNY   75  57  53 VRB6      30.17F
ROCHESTER/MAYO FAIR      74  51  44 S5        30.17S
WINONA         MOSUNNY   73  61  64 E6        30.16S
AUSTIN         MOSUNNY   75  55  50 SW7       30.16S
ALBERT LEA     MOSUNNY   77  57  50 S7        30.15F
DODGE CENTER   MOSUNNY   73  59  60 S7        30.16S
PRESTON        MOSUNNY   73  62  68 SW3       30.18S
OWATONNA       MOSUNNY   77  55  47 S8        30.14F
FARIBAULT      SUNNY     81  52  36 S6        30.14S
$$

...ELSEWHERE IN MINNESOTA...


CITY           SKY/WX    TMP DP  RH WIND       PRES   REMARKS
MINNEAPOLIS    MOSUNNY   77  54  44 S6        30.12F
INTNL FALLS    CLOUDY    70  52  52 S7        30.10F
DULUTH         MOSUNNY   71  56  58 SW6       30.12F
RED WING       SUNNY     79  57  47 SE5       30.13F
REDWOOD FALLS  SUNNY     77  58  51 SE12      30.09S
MANKATO        MOSUNNY   75  57  53 SE9       30.12F
WORTHINGTON    MOSUNNY   72  57  60 S12G18    30.11S
FAIRMONT       MOSUNNY   75  57  53 S12       30.11F
$$

...SOUTHWEST WISCONSIN...


CITY           SKY/WX    TMP DP  RH WIND       PRES   REMARKS
LA CROSSE        N/A     74  59  59 SW5         N/A
PRAIRIE DU CHI SUNNY     72  53  52 S5        30.17S
BOSCOBEL       SUNNY     75  52  44 SW6       30.18S
LONE ROCK      NOT AVBL
PLATTEVILLE    SUNNY     70  55  58 S6        30.21R
FORT MC COY    SUNNY     71  54  54 S3        30.18S
VIROQUA        FAIR      70  57  62 CALM      30.19S
WIS DELLS      SUNNY     71  45  39 CALM      30.19R
$$

...ELSEWHERE IN WISCONSIN...


CITY           SKY/WX    TMP DP  RH WIND       PRES   REMARKS
MILWAUKEE      MOSUNNY   66  54  65 NE7       30.19R
MADISON        PTSUNNY   72  50  45 SE5       30.19R
GREEN BAY      SUNNY     71  45  39 CALM      30.17F
EAU CLAIRE     NOT AVBL
BLACK RVR FLS  FAIR      73  56  54 CALM      30.17R
MEDFORD        SUNNY     68  55  62 S3        30.18R
WAUSAU         SUNNY     70  51  51 S6        30.16S
WIS RAPIDS     SUNNY     72  50  45 S6        30.19R
MARSHFIELD     SUNNY     70  55  59 W3        30.18R
RICE LAKE      SUNNY     73  54  50 S5        30.17F
$$

...NORTHEAST IOWA...


CITY           SKY/WX    TMP DP  RH WIND       PRES   REMARKS
WATERLOO       PTSUNNY   75  60  59 S5        30.16R
DUBUQUE        SUNNY     70  55  59 SW7       30.20R
DECORAH        MOSUNNY   72  61  68 S5        30.17S
MASON CITY     PTSUNNY   76  61  59 S9        30.17F
CHARLES CITY   MOSUNNY   75  59  57 VRB5      30.18R
OELWEIN        SUNNY     73  63  68 VRB7      30.18S
$$

...ELSEWHERE IN IOWA...


CITY           SKY/WX    TMP DP  RH WIND       PRES   REMARKS
DES MOINES     CLOUDY    76  61  59 VRB3      30.18R
IOWA CITY      SUNNY     71  56  58 SE7       30.19F
FORT DODGE     CLOUDY    73  63  68 SW6       30.18F
MARSHALLTOWN   PTSUNNY   74  61  63 SE3       30.17R
CEDAR RAPIDS   SUNNY     71  57  61 S7        30.18R
$$

...NORTHERN ILLINOIS...


CITY           SKY/WX    TMP DP  RH WIND       PRES   REMARKS
CHICAGO-OHARE  MOSUNNY   71  49  45 NE13      30.18R
DUPAGE         SUNNY     72  52  49 N8        30.17S
CHICAGO-MIDWAY MOSUNNY   70  54  56 NE12      30.17R
MOLINE         SUNNY     73  52  47 E7        30.18R
ROCKFORD       MOSUNNY   72  49  44 NE7       30.20S
STERLING       SUNNY     73  54  49 E7        30.20R
PEORIA         SUNNY     74  52  46 E9        30.17S
$$

NOTE: "FAIR" INDICATES FEW OR NO CLOUDS BELOW 12,000 FEET WITH NO
SIGNIFICANT WEATHER AND/OR OBSTRUCTIONS TO VISIBILITY. WIND
SPEEDS ARE IN MILES-PER-HOUR.



USA.gov is the U.S. government's official web portal to all federal, state and local government web resources and services.